Home > Weather > Monheim am Rhein > Past weeks

Flag for Germany Weather for the Past 2 Weeks in Monheim am Rhein, North Rhine-Westphalia, Germany

Now
46 °F

Light rain. Mostly cloudy.


Feels Like: 41 °F
Forecast: 41 / 51 °F
Wind: 10 mph from West

Location: Duesseldorf

Current Time: Apr 29, 2016 at 6:43:20 PM

Latest Report: Apr 29, 2016 at 6:20 PM


Visibility: N/A

Pressure: 29.98 "Hg

Humidity: 87%

Dew Point: 43 °F

Location of Monheim am RheinLocation

Historic Weather in Monheim am Rhein — Graph

°F

Monheim am Rhein Temperature Yesterday

Maximum temperature yesterday: 50 °F (at 12:50 PM)
Minimum temperature yesterday: 37 °F (at 12:20 AM)
Average temperature yesterday: 42 °F

High & Low Weather Summary for the Past Weeks

 TemperatureHumidityPressure
High68 °F (Apr 21, 3:50 PM)100% (Apr 18, 12:20 AM)30.48 "Hg (Apr 18, 12:20 AM)
Low32 °F (Apr 18, 5:20 AM)34% (Apr 20, 4:50 PM)29.47 "Hg (Apr 16, 5:20 AM)
Average47 °F71%29.93 "Hg
* Reported Apr 14 5:20 PM — Apr 29 5:20 PM, Monheim am Rhein, Weather by CustomWeather, © 2016

Note: Actual official high and low records may vary slightly from our data, if they occured in-between our weather recording intervals... More about our weather records

Advertising

Monheim am Rhein Weather History for the Previous 24 Hours

Scroll right to see more
 ConditionsComfort  
Time TempWeatherWind HumidityBarometerVisibility
5:20 PM
Fri, Apr 29
48 °FLight rain. Broken clouds.9 mph76%29.98 "HgN/A
4:50 PM48 °FBroken clouds.8 mph82%29.95 "HgN/A
4:20 PM50 °FLight rain. Broken clouds.9 mph76%29.95 "HgN/A
3:50 PM50 °FBroken clouds.6 mph76%29.95 "HgN/A
3:20 PM50 °FBroken clouds.7 mph76%29.95 "HgN/A
2:50 PM48 °FBroken clouds.7 mph82%29.95 "HgN/A
2:20 PM48 °FBroken clouds.10 mph82%29.95 "HgN/A
1:50 PM52 °FBroken clouds.17 mph58%29.92 "HgN/A
1:20 PM52 °FBroken clouds.21 mph58%29.92 "HgN/A
12:50 PM54 °FBroken clouds.21 mph51%29.92 "HgN/A
12:20 PM54 °FBroken clouds.18 mph54%29.92 "HgN/A
11:50 AM52 °FPartly sunny.18 mph58%29.92 "HgN/A
11:20 AM50 °FPartly sunny.18 mph58%29.92 "HgN/A
10:50 AM50 °FPartly sunny.17 mph62%29.92 "HgN/A
10:20 AM50 °FPartly sunny.18 mph62%29.92 "HgN/A
9:50 AM50 °FPartly sunny.18 mph62%29.92 "HgN/A
9:20 AM48 °FPassing clouds.17 mph62%29.95 "HgN/A
8:50 AM46 °FSunny.17 mph66%29.92 "Hg10 mi
8:20 AM45 °FSunny.14 mph71%29.92 "Hg10 mi
7:50 AM43 °FSunny.15 mph71%29.92 "Hg10 mi
7:20 AM43 °FSunny.12 mph71%29.92 "Hg10 mi
6:50 AM41 °FClear.15 mph76%29.92 "Hg10 mi
6:20 AM41 °FClear.15 mph76%29.92 "Hg10 mi
5:50 AM41 °FClear.15 mph76%29.92 "Hg10 mi
5:20 AM41 °FClear.13 mph81%29.92 "Hg10 mi
4:20 AM39 °FClear.15 mph87%29.95 "Hg10 mi
3:50 AM39 °FClear.12 mph87%29.95 "Hg10 mi
3:20 AM39 °FClear.10 mph87%29.95 "Hg10 mi
2:50 AM39 °FClear.12 mph93%29.95 "Hg10 mi
2:20 AM39 °FClear.12 mph93%29.95 "Hg10 mi
1:50 AM39 °FClear.13 mph93%29.95 "Hg10 mi
1:20 AM39 °FClear.12 mph93%29.98 "Hg10 mi
12:20 AM39 °FClear.10 mph93%29.98 "Hg10 mi
11:50 PM
Thu, Apr 28
39 °FClear.8 mph93%29.98 "Hg10 mi
11:20 PM39 °FClear.8 mph87%29.98 "Hg10 mi
10:20 PM39 °FClear.7 mph93%29.98 "Hg10 mi
9:50 PM39 °FScattered clouds.5 mph93%29.98 "HgN/A
9:20 PM41 °FScattered clouds.5 mph93%29.98 "HgN/A
8:50 PM41 °FFog.2 mph93%29.98 "HgN/A
8:20 PM43 °FScattered clouds.5 mph87%29.98 "HgN/A
7:50 PM43 °FScattered clouds.6 mph87%29.98 "HgN/A
7:20 PM43 °FSprinkles. Scattered clouds.8 mph87%29.98 "HgN/A
6:50 PM45 °FSprinkles. Partly sunny.7 mph81%29.98 "HgN/A
6:20 PM46 °FScattered showers. Scattered clouds.3 mph76%29.98 "HgN/A
Weather by CustomWeather, © 2016

See weather overviewHow to use our weather pages